Regional Weather Roundup
Issued by NWS

Home | Current Version | Previous Version | Text Only | Print | Product List | Glossary Off
Versions: 1 2 3 4 5 6 7 8 9 10 11 12 13 14 15 16 17 18 19 20 21 22 23 24 25 26 27 28 29 30 31 32 33 34 35 36 37 38 39 40 41 42 43 44 45 46 47 48 49 50

000
ASUS43 KOAX 221810
RWRNE

WEATHER ROUNDUP FOR NEBRASKA
NATIONAL WEATHER SERVICE OMAHA NE
100 PM CDT TUE MAY 22 2018

NOTES: SATELLITE DATA IS BEING USED TO AUGMENT CLOUD COVER ABOVE
       12000 FEET.
       "FAIR" INDICATES FEW OR NO CLOUDS BELOW 12,000 FEET WITH NO
       SIGNIFICANT WEATHER AND/OR OBSTRUCTIONS TO VISIBILITY.


NEZ001>004-019>022-054>056-221900-
NEBRASKA PANHANDLE

CITY           SKY/WX    TMP DP  RH WIND       PRES   REMARKS
SCOTTSBLUFF    SUNNY     75  65  70 SE13G18   29.94F
6HR MIN TEMP:  50; 6HR MAX TEMP:  75;

ALLIANCE       SUNNY     78  58  49 SE14      29.94F
6HR MIN TEMP:  47; 6HR MAX TEMP:  78;

CHADRON        PTSUNNY   77  60  55 NE8       29.93F
6HR MIN TEMP:  48; 6HR MAX TEMP:  77;

GORDON         FAIR      79  57  46 E10       29.96S
6HR MIN TEMP:  47; 6HR MAX TEMP:  79;

KIMBALL        SUNNY     72  56  56 E13       29.98F
SIDNEY         MOSUNNY   76  51  41 SE12      29.96F
6HR MIN TEMP:  52; 6HR MAX TEMP:  76;

$$

NEZ057>060-069>072-079>082-221900-
SOUTHWEST NEBRASKA

CITY           SKY/WX    TMP DP  RH WIND       PRES   REMARKS
NORTH PLATTE   CLOUDY    79  59  50 SW7       29.95F
6HR MIN TEMP:  54; 6HR MAX TEMP:  79;

IMPERIAL       CLOUDY    77  53  43 SE10      29.95F
6HR MIN TEMP:  54; 6HR MAX TEMP:  79;

LEXINGTON      CLOUDY    79  63  58 SE6       29.96F
MCCOOK         CLOUDY    79  61  53 SE8       29.94F
6HR MIN TEMP:  57; 6HR MAX TEMP:  79;

OGALLALA       CLOUDY    77  54  45 SE9       29.95S
$$

NEZ005>010-023>029-035>040-094-221900-
NORTH CENTRAL NEBRASKA

CITY           SKY/WX    TMP DP  RH WIND       PRES   REMARKS
VALENTINE      SUNNY     79  62  56 SE7       29.94F
6HR MIN TEMP:  56; 6HR MAX TEMP:  79;

AINSWORTH      SUNNY     76  65  69 SE9       29.95F
BROKEN BOW     PTSUNNY   76  64  66 SE8       29.95F
6HR MIN TEMP:  57; 6HR MAX TEMP:  77;

O`NEILL        MOSUNNY   76  64  67 SE8       29.96F
ORD            MOSUNNY   77  63  61 VRB5      29.93F
6HR MIN TEMP:  56; 6HR MAX TEMP:  77;

THEDFORD       MOSUNNY   79  63  57 SE8       29.96F
$$

NEZ041-046>049-061>064-073>077-083>087-221900-
SOUTH CENTRAL NEBRASKA

CITY           SKY/WX    TMP DP  RH WIND       PRES   REMARKS
GRAND ISLAND   MOSUNNY   81  65  58 S13       29.97S
6HR MIN TEMP:  63; 6HR MAX TEMP:  81;

AURORA         MOSUNNY   80  64  57 SW16      29.97F
HASTINGS       MOSUNNY   80  64  58 S7G18     29.98F
6HR MIN TEMP:  63; 6HR MAX TEMP:  80;

HEBRON         MOSUNNY   85  64  49 S12G20    29.99S
HOLDREGE       CLOUDY    79  64  59 S10       29.97F
KEARNEY        MOSUNNY   79  64  60 S10       29.97F
YORK           CLOUDY    81  66  61 S14G20    29.97F
$$

NEZ011>018-030>034-042>045-221900-
NORTHEAST NEBRASKA

CITY           SKY/WX    TMP DP  RH WIND       PRES   REMARKS
NORFOLK        CLOUDY    74  66  76 SE15      29.93F
6HR MIN TEMP:  59; 6HR MAX TEMP:  75; 6HR PCP:  0.02;

ALBION         MOSUNNY   78  66  66 SE10      29.95F
BLAIR          MOSUNNY   75  66  74 S18       30.00F
COLUMBUS       CLOUDY    81  65  58 S18       29.96F
FREMONT        MOSUNNY   77  66  69 SE20      29.99S
TEKAMAH        CLOUDY    77  66  68 S17       29.97F
6HR MIN TEMP:  59; 6HR MAX TEMP:  77; 6HR PCP:  0.24;

WAYNE          CLOUDY    73  72  96 S13       29.97F
$$

NEZ050>053-065>068-078-088>093-221900-
SOUTHEAST NEBRASKA

CITY           SKY/WX    TMP DP  RH WIND       PRES   REMARKS
LINCOLN        CLOUDY    82  66  58 S13       29.99F
6HR MIN TEMP:  64; 6HR MAX TEMP:  82; 6HR PCP:  0.06;

OMAHA EPPLEY   PTSUNNY   74  65  73 S22       29.99F
6HR MIN TEMP:  63; 6HR MAX TEMP:  74; 6HR PCP:  0.71;

BEATRICE       MOSUNNY   85  65  51 SW17      29.99F
FALLS CITY     CLOUDY    83  63  50 S8        30.02F
6HR MIN TEMP:  64; 6HR MAX TEMP:  83;

NEBRASKA CITY  PTSUNNY   80  66  60 E14       30.04S
PLATTSMOUTH    RAIN      69  65  89 SE10      30.02F
$$

NEZ044-045-051>053-067-221900-
OMAHA AREA

CITY           SKY/WX    TMP DP  RH WIND       PRES   REMARKS
OMAHA EPPLEY   PTSUNNY   74  65  73 S22       29.99F
6HR MIN TEMP:  63; 6HR MAX TEMP:  74; 6HR PCP:  0.71;

BLAIR          MOSUNNY   75  66  74 S18       30.00F
FREMONT        MOSUNNY   77  66  69 SE20      29.99S
MILLARD        CLOUDY    73  67  81 SE13      30.00F
PLATTSMOUTH    RAIN      69  65  89 SE10      30.02F
WAHOO          FAIR      77  65  68 SE22G29   29.99F
$$




USA.gov is the U.S. government's official web portal to all federal, state and local government web resources and services.